{"data":{"norad_id":68887,"epoch":"2026-09-19T06:25:14.641248Z","epoch_age_seconds":122013,"freshness":"FRESH","line1":"1 68887U 26095Z   26262.26753057  .00000261  00000+0  63280-4 0  9993","line2":"2 68887  51.8992 179.6284 0000954  86.1068 274.0003 14.79928117 21757","mean_motion":14.79928117,"eccentricity":9.54e-5,"inclination_deg":51.8992,"raan_deg":179.6284,"arg_perigee_deg":86.1068,"mean_anomaly_deg":274.0003,"bstar":6.328e-5,"rev_number":2175,"period_min":97.302023217118,"perigee_km":628.882510199,"apogee_km":630.21957707773,"semimajor_km":7007.6880436384,"source":"CELESTRAK","updated_at":"2026-09-20T09:00:24.540959Z"}}